PDT,Max TemperatureF,Mean TemperatureF,Min TemperatureF,Max Dew PointF,MeanDew PointF,Min DewpointF,Max Humidity, Mean Humidity, Min Humidity, Max Sea Level PressureIn, Mean Sea Level PressureIn, Min Sea Level PressureIn, Max VisibilityMiles, Mean VisibilityMiles, Min VisibilityMiles, Max Wind SpeedMPH, Mean Wind SpeedMPH, Max Gust SpeedMPH,PrecipitationIn, CloudCover, Events, WindDirDegrees
2012-10-1,88,66,43,55,45,36,82,55,27,30.25,30.17,30.09,10,10,10,21,7,25,0.00,0,,44
2012-10-2,72,60,47,52,45,34,86,63,40,30.20,30.16,30.10,10,10,10,14,5,56,0.00,0,,8
2012-10-3,72,61,49,38,30,24,61,41,20,30.25,30.19,30.14,10,10,9,25,14,30,0.00,0,,20
2012-10-4,75,64,53,31,28,23,41,29,17,30.17,30.15,30.13,10,10,10,21,12,25,0.00,0,,11
2012-10-5,76,63,49,27,23,19,38,25,12,30.17,30.14,30.10,10,10,10,21,11,36,0.00,0,,7
2012-10-6,78,64,50,25,22,17,32,22,11,30.17,30.10,30.03,10,10,10,17,11,20,0.00,0,,357
2012-10-7,80,63,45,36,27,23,56,36,15,30.04,29.98,29.91,10,10,10,12,5,14,0.00,0,,342
2012-10-8,72,53,34,47,37,29,80,55,29,30.06,29.99,29.94,10,10,10,16,4,20,0.00,0,,222
2012-10-9,69,55,40,46,42,37,92,66,39,30.14,30.07,30.00,10,8,2,6,1,21,0.00,2,,307
2012-10-10,72,55,37,48,41,34,92,65,38,30.06,30.00,29.91,10,7,0,9,1,12,0.00,1,Fog,254
2012-10-11,67,51,35,48,41,34,93,73,52,29.99,29.94,29.81,10,4,0,14,2,17,0.00,3,Fog,194
2012-10-12,54,48,42,52,48,39,93,87,80,30.09,30.00,29.89,10,6,1,14,5,16,0.81,7,Rain,164
2012-10-13,65,57,49,56,52,48,100,87,73,30.24,30.19,30.10,10,7,0,18,5,23,0.01,6,Fog-Rain,193
2012-10-14,65,59,53,57,55,52,93,83,73,30.17,30.08,29.96,10,8,2,20,7,26,0.58,7,Rain,184
2012-10-15,67,62,57,61,59,55,93,86,78,29.99,29.85,29.72,10,8,2,23,9,31,0.55,8,Rain,202
2012-10-16,64,54,44,58,46,40,86,63,40,30.32,30.11,29.75,10,10,10,16,8,22,0.01,5,Rain,268
2012-10-17,63,51,39,46,41,37,96,70,43,30.35,30.28,30.19,10,8,0,12,3,,0.00,0,Fog,359
2012-10-18,67,52,36,52,43,34,93,71,48,30.21,30.05,29.92,10,8,2,12,3,13,0.07,1,Rain,195
2012-10-19,61,56,50,54,50,45,93,85,77,29.96,29.90,29.83,10,8,2,16,9,20,0.16,8,Rain,197
2012-10-20,57,49,41,46,42,39,89,70,51,30.01,29.96,29.92,10,9,5,18,7,23,0.08,3,Rain,235
2012-10-21,54,47,39,45,41,37,96,78,59,29.95,29.89,29.74,10,7,0,12,4,51,0.18,6,Fog-Rain,174
2012-10-22,53,47,40,45,43,38,93,78,63,29.73,29.63,29.58,10,8,4,25,7,30,0.28,7,Rain,143
2012-10-23,51,46,40,43,40,37,93,80,66,29.89,29.84,29.74,10,10,7,17,8,23,0.06,7,Rain,164
2012-10-24,52,48,43,43,42,39,92,80,68,30.22,29.99,29.87,10,9,2,15,5,18,0.25,7,Rain,181
2012-10-25,54,46,38,44,40,36,100,82,64,30.45,30.35,30.24,10,4,0,7,3,24,0.05,4,Fog-Rain,309
2012-10-26,60,52,44,49,45,41,93,80,67,30.31,30.19,30.15,10,6,1,20,4,95,0.01,7,Rain,164
2012-10-27,61,54,46,57,52,44,93,89,84,30.02,29.97,29.91,10,5,2,24,9,32,0.83,8,Rain,187
2012-10-28,62,60,57,57,55,52,93,84,75,30.00,29.95,29.87,10,7,2,22,5,29,0.89,8,Rain,203
2012-10-29,67,62,56,56,55,54,93,80,67,30.07,30.00,29.87,10,8,2,22,7,30,0.29,7,Rain,221
2012-10-30,62,59,55,58,56,53,93,89,84,29.99,29.90,29.78,10,6,1,13,4,15,0.55,8,Rain,128
2012-10-31,59,56,53,56,53,49,93,85,77,29.77,29.71,29.66,10,7,2,23,7,30,0.37,8,Rain,132